"TOA5","AWS1","CR1000","7964","CR1000.Std.14","CPU:AWS1_114.CR1","64363","TBL110"
"TIMESTAMP","RECORD","Wind_spd_WVc(1)","Wind_spd_WVc(2)","Air_Temp_Avg","Humidity_Avg","SW_upper_Wm2_Avg","Rain_Tot","Press_Avg","Issui_Tot","Depth_cm","SR50A_Raw","Quality","Ground_Temp_Avg(1)","Ground_Temp_Avg(2)","SW_lower_Wm2_Avg","Albedo_Avg","SWC_per(1)","SWC_per(2)","Period(1)","Period(2)"
"TS","RN","","","","","","","","","","","","","","","","","","",""
"","","WVc","WVc","Avg","Avg","Avg","Tot","Avg","Tot","Smp","Smp","Smp","Avg","Avg","Avg","Avg","Smp","Smp","Smp","Smp"
"2016-03-06 00:00:00",225421,0.183,2.244,2.525,99.7,0,0,875.6249,0,29.57,2.869,170,0.851,1.32,0.1326793,0,51.27,59.14,33.61,35.48
"2016-03-06 00:10:00",225422,0.324,69.91,2.771,98.4,0,0,875.6144,0,29.53,2.871,170,0.851,1.316,0.2350319,0,51.27,59.14,33.61,35.48
"2016-03-06 00:20:00",225423,0.235,96.1,2.629,99.5,0,0,875.6249,0,29.58,2.871,170,0.851,1.325,0.04928087,0,51.27,59.14,33.61,35.48
"2016-03-06 00:30:00",225424,0.182,108.6,2.374,99.8,0,0,875.5153,0,29.27,2.875,183,0.849,1.316,0.007581673,0,51.21,59.14,33.6,35.48
"2016-03-06 00:40:00",225425,0.451,101.5,2.632,98.2,0,0,875.2983,0,29.65,2.868,170,0.85,1.33,0.3070577,0,51.21,59.14,33.6,35.48
"2016-03-06 00:50:00",225426,0.383,101.1,3.022,90.5,0,0,875.0833,0,29.48,2.869,188,0.851,1.313,0.5534621,0,51.27,59.14,33.61,35.48
"2016-03-06 01:00:00",225427,0.336,115.6,2.921,88.2,0,0,875.0855,0,28.68,2.879,174,0.845,1.321,0.276731,0,51.27,59.14,33.61,35.48
"2016-03-06 01:10:00",225428,0.523,139.6,1.999,93.8,0,0,874.858,0,29.5,2.874,170,0.841,1.317,0.007581673,0,51.27,59.14,33.61,35.48
"2016-03-06 01:20:00",225429,0.691,99.6,2.288,90.4,0,0,874.8094,0,29.46,2.874,179,0.854,1.327,0.04549004,0,51.27,59.14,33.61,35.48
"2016-03-06 01:30:00",225430,0.609,126.7,2.576,82.6,0,0,874.7968,0,29.59,2.868,171,0.835,1.325,0.1819602,0,51.27,59.2,33.61,35.5
"2016-03-06 01:40:00",225431,0.852,146,3.665,67.32,0,0,874.6768,0,29.16,2.868,171,0.854,1.327,0.7619581,0,51.27,59.14,33.61,35.48
"2016-03-06 01:50:00",225432,0.782,119.8,3.682,62.76,0,0,874.7484,0,29.78,2.864,174,0.853,1.322,0.06444422,0,51.27,59.14,33.61,35.48
"2016-03-06 02:00:00",225433,0.764,121.2,4.018,56.25,0,0,874.7905,0,29.46,2.863,171,0.851,1.305,0.1023526,0,51.27,59.14,33.61,35.48
"2016-03-06 02:10:00",225434,0.641,149.5,4.184,54.81,0,0,874.8663,0,30.33,2.855,179,0.851,1.304,0.03411753,0,51.27,59.14,33.61,35.48
"2016-03-06 02:20:00",225435,1.433,146.8,4.661,50.87,0,0,874.8411,0,29.7,2.859,170,0.851,1.324,0.1023526,0,51.27,59.14,33.61,35.48
"2016-03-06 02:30:00",225436,1.082,138.4,4.902,46.55,0,0,874.8305,0,29.28,2.861,170,0.851,1.356,0.007581673,0,51.27,59.14,33.61,35.48
"2016-03-06 02:40:00",225437,1.102,141.5,5.081,44.86,0,0,874.761,0,29.39,2.859,171,0.856,1.359,0,0,51.27,59.14,33.61,35.48
"2016-03-06 02:50:00",225438,1.444,147.7,5.129,45.3,0,0,874.5778,0,29.32,2.861,171,0.859,1.333,0,0,51.27,59.2,33.61,35.5
"2016-03-06 03:00:00",225439,1.308,154.5,5.068,46.38,0,0,874.5609,0,29.32,2.861,171,0.843,1.325,0,0,51.27,59.14,33.61,35.48
"2016-03-06 03:10:00",225440,0.888,133.3,4.866,48.24,0,0,874.5988,0,29.02,2.866,175,0.835,1.326,0,0,51.27,59.14,33.61,35.48
"2016-03-06 03:20:00",225441,1.464,163.2,4.759,50.31,0,0,874.5082,0,29.51,2.858,174,0.902,1.325,0,0,51.27,59.14,33.61,35.48
"2016-03-06 03:30:00",225442,1.88,165,5.248,52.79,0,0,874.308,0,29.56,2.856,170,0.895,1.309,0,0,51.27,59.14,33.61,35.48
"2016-03-06 03:40:00",225443,1.316,166.9,5.453,54.28,0,0,874.2385,0,29.65,2.856,174,0.894,1.289,0,0,51.27,59.14,33.61,35.48
"2016-03-06 03:50:00",225444,0.969,163.8,5.395,54.91,0,0,874.308,0,29.46,2.857,170,0.894,1.285,0,0,51.27,59.14,33.61,35.48
"2016-03-06 04:00:00",225445,1.213,157.8,5.505,58.01,0,0,874.1774,0,29.37,2.857,170,0.869,1.284,0,0,51.33,59.14,33.62,35.48
"2016-03-06 04:10:00",225446,1.484,155.7,5.649,62.54,0,0,874.0784,0,29.37,2.857,170,0.861,1.284,0,0,51.27,59.2,33.61,35.5
"2016-03-06 04:20:00",225447,1.165,161.2,5.702,63.83,0,0,874.0762,0,29.67,2.854,183,0.857,1.285,0,0,51.27,59.2,33.61,35.5
"2016-03-06 04:30:00",225448,0.588,164.9,5.589,63.68,0,0,874.1876,0,29.71,2.854,182,0.852,1.29,0,0,51.27,59.2,33.61,35.5
"2016-03-06 04:40:00",225449,0.686,143.2,5.589,64.42,0,0,874.25,0,29.73,2.853,174,0.852,1.285,0,0,51.27,59.2,33.61,35.5
"2016-03-06 04:50:00",225450,1.084,156.7,5.701,64.43,0,0,874.152,0,29.46,2.857,170,0.852,1.294,0,0,51.27,59.14,33.61,35.48
"2016-03-06 05:00:00",225451,0.671,186.6,5.551,64.96,0,0,874.0554,0,29.51,2.856,178,0.852,1.285,0,0,51.27,59.2,33.61,35.5
"2016-03-06 05:10:00",225452,0.56,144.3,5.522,66.12,0,0,874.1884,0,29.9,2.854,174,0.851,1.285,0,0,51.27,59.2,33.61,35.5
"2016-03-06 05:20:00",225453,0.832,148,5.314,68.65,0,0,874.2576,0,29.74,2.854,170,0.848,1.283,0,0,51.33,59.2,33.62,35.5
"2016-03-06 05:30:00",225454,0.832,171.9,5.511,69.46,0,0,874.2009,0,29.61,2.856,179,0.849,1.285,0,0,51.27,59.2,33.61,35.5
"2016-03-06 05:40:00",225455,1.223,159.5,5.56,70.88,0,0,874.0037,0,29.63,2.854,170,0.844,1.294,0,0,51.27,59.2,33.61,35.5
"2016-03-06 05:50:00",225456,0.816,152.3,5.897,70.57,0,0,874.0823,0,29.44,2.855,171,0.837,1.286,0,0,51.27,59.2,33.61,35.5
"2016-03-06 06:00:00",225457,0.865,157.1,6.028,70.51,0,0,874.0989,0,29.3,2.856,170,0.83,1.301,0.01895233,0,51.33,59.2,33.62,35.5
"2016-03-06 06:10:00",225458,0.473,28.37,5.992,70.92,0.4795901,0,874.0867,0,29.42,2.854,170,0.818,1.273,0.1970953,0.188,51.33,59.2,33.62,35.5
"2016-03-06 06:20:00",225459,0.587,330.6,5.921,71.1,1.886909,0,874.2673,0,29.5,2.855,170,0.818,1.306,0.9210403,0.517,51.27,59.2,33.61,35.5
"2016-03-06 06:30:00",225460,0.719,28.31,5.949,71.91,7.504381,0,874.4202,0,29.38,2.854,170,0.828,1.306,3.998749,0.522,51.33,59.2,33.62,35.5
"2016-03-06 06:40:00",225461,0.482,162.1,5.989,71.95,18.43183,0,874.0844,0,29.53,2.853,170,0.804,1.293,9.501787,0.515,51.27,59.2,33.61,35.5
"2016-03-06 06:50:00",225462,0.204,12.45,6.018,71.82,9.579007,0,874.1615,0,29.29,2.855,179,0.803,1.297,4.972345,0.516,51.33,59.2,33.62,35.5
"2016-03-06 07:00:00",225463,0.314,109.7,6.079,72.39,18.50063,0,874.2182,0,29.61,2.851,179,0.801,1.285,9.709217,0.529,51.33,59.2,33.62,35.5
"2016-03-06 07:10:00",225464,0.917,144.3,6.454,71.28,13.28854,0,874.252,0,29.58,2.85,190,0.824,1.281,6.931201,0.521,51.33,59.2,33.62,35.5
"2016-03-06 07:20:00",225465,1.061,142,6.7,71.28,26.17977,0,874.2477,0,29.49,2.85,189,0.844,1.278,14.04791,0.538,51.27,59.2,33.61,35.5
"2016-03-06 07:30:00",225466,0.845,157.2,6.815,71.94,46.64863,0,874.2245,0,29.55,2.849,185,0.834,1.258,23.91584,0.515,51.33,59.2,33.62,35.5
"2016-03-06 07:40:00",225467,0.885,145.7,6.775,71.73,46.26735,0,874.0308,0,29.4,2.852,195,0.819,1.231,23.84761,0.516,51.27,59.2,33.61,35.5
"2016-03-06 07:50:00",225468,0.961,153,6.89,70.96,79.95383,0,873.9781,0,29.27,2.85,193,0.81,1.22,41.07108,0.516,51.33,59.2,33.62,35.5
"2016-03-06 08:00:00",225469,0.814,178.8,7.07,69.91,82.52817,0,873.9991,0,29.36,2.85,178,0.8,1.249,41.34772,0.501,51.33,59.2,33.62,35.5
"2016-03-06 08:10:00",225470,0.629,153.3,6.983,70.52,73.42562,0,873.9781,0,28.9,2.855,174,0.803,1.277,37.57333,0.512,51.33,59.2,33.62,35.5
"2016-03-06 08:20:00",225471,0.821,157,7.087,70.22,77.06506,0,873.9107,0,29.46,2.849,169,0.828,1.282,39.40368,0.511,51.33,59.2,33.62,35.5
"2016-03-06 08:30:00",225472,0.328,24.53,7.036,70.67,68.99226,0,873.7296,0,29.35,2.851,174,0.845,1.282,35.48908,0.514,51.33,59.2,33.62,35.5
"2016-03-06 08:40:00",225473,0.26,45.48,7.021,71.85,101.9084,0,873.7253,0,29.11,2.852,186,0.85,1.282,51.92055,0.509,51.33,59.2,33.62,35.5
"2016-03-06 08:50:00",225474,0.307,339.4,6.931,73.1,158.2294,0,873.5989,0,29,2.854,168,0.85,1.281,79.74339,0.502,51.38,59.2,33.64,35.5
"2016-03-06 09:00:00",225475,0.371,331.7,6.668,76.04,83.35352,0,873.58,0,29.52,2.852,173,0.85,1.268,41.44625,0.496,51.38,59.2,33.64,35.5
"2016-03-06 09:10:00",225476,0.54,342.7,6.233,80.4,79.8477,0,873.8096,0,29.28,2.855,169,0.85,1.28,40.69213,0.507,51.33,59.26,33.62,35.51
"2016-03-06 09:20:00",225477,0.483,4.26,6.261,81.5,103.4765,0,873.9529,0,29.24,2.853,172,0.849,1.278,52.93612,0.511,51.33,59.2,33.62,35.5
"2016-03-06 09:30:00",225478,0.406,32.61,6.807,78.59,52.44121,0,873.9633,0,28.99,2.855,189,0.846,1.271,26.37493,0.497,51.33,59.2,33.62,35.5
"2016-03-06 09:40:00",225479,0.47,240.3,6.426,79.6,54.89338,0,873.8834,0,29.01,2.857,173,0.845,1.277,28.50825,0.513,51.33,59.26,33.62,35.51
"2016-03-06 09:50:00",225480,0.278,152.8,6.473,79.58,114.4084,0,873.4853,0,28.79,2.857,188,0.845,1.277,59.82434,0.52,51.33,59.26,33.62,35.51
"2016-03-06 10:00:00",225481,0.71,216.1,7.11,75.83,215.7016,0,873.243,0,28.67,2.854,185,0.844,1.255,113.7447,0.527,51.33,59.2,33.62,35.5
"2016-03-06 10:10:00",225482,0.268,316.3,7.411,72.8,228.9304,0,872.9671,0,28.71,2.853,181,0.788,1.22,116.0617,0.506,51.33,59.2,33.62,35.5
"2016-03-06 10:20:00",225483,0.568,331.2,7.892,70.24,268.1829,0,872.9671,0,28.96,2.848,170,0.738,1.241,135.9586,0.507,51.33,59.26,33.62,35.51
"2016-03-06 10:30:00",225484,0.54,30.45,8.46,65.04,272.8814,0,872.8647,0,28.91,2.846,170,0.77,1.301,142.8208,0.521,51.33,59.26,33.62,35.51
"2016-03-06 10:40:00",225485,1.312,131.6,8.65,59.66,233.2381,0,872.7717,0,28.78,2.848,174,0.763,1.293,117.7714,0.506,51.33,59.2,33.62,35.5
"2016-03-06 10:50:00",225486,0.886,155.9,8.41,59.61,196.2112,0,872.6188,0,28.89,2.849,172,0.758,1.284,95.20808,0.487,51.33,59.26,33.62,35.51
"2016-03-06 11:00:00",225487,0.922,135,8.51,59.46,346.0829,0,872.6402,0,28.7,2.846,190,0.773,1.28,157.6943,0.464,51.33,59.26,33.62,35.51
"2016-03-06 11:10:00",225488,1.416,130.9,9.24,56.22,388.5733,0,872.4929,0,28.24,2.849,181,0.81,1.278,177.3018,0.458,51.33,59.26,33.62,35.51
"2016-03-06 11:20:00",225489,1.54,149.1,9.38,54.81,326.0476,0,872.3829,0,28.06,2.851,170,0.807,1.278,165.8573,0.508,51.33,59.2,33.62,35.5
"2016-03-06 11:30:00",225490,1.232,129.9,9.55,54.26,388.9736,0,872.4291,0,28.37,2.846,169,0.802,1.252,192.1023,0.495,51.38,59.26,33.64,35.51
"2016-03-06 11:40:00",225491,1.356,139.1,9.56,54.08,288.5733,0,872.4144,0,27.91,2.852,181,0.797,1.225,142.4762,0.495,51.33,59.26,33.62,35.51
"2016-03-06 11:50:00",225492,0.783,93.9,9.15,56.49,313.8187,0,872.3386,0,28.14,2.85,171,0.802,1.228,151.9458,0.49,51.33,59.26,33.62,35.51
"2016-03-06 12:00:00",225493,1.156,135.9,9.37,55.81,237.6858,0,872.2039,0,27.9,2.854,170,0.783,1.21,115.858,0.491,51.33,59.26,33.62,35.51
"2016-03-06 12:10:00",225494,1.832,129.9,8.87,55.68,161.6775,0,871.9849,0,27.95,2.854,178,0.778,1.235,83.47984,0.516,51.33,59.2,33.62,35.5
"2016-03-06 12:20:00",225495,1.63,143.5,9.23,54.88,398.6202,0,871.7111,0,27.62,2.854,178,0.775,1.243,199.3563,0.502,51.33,59.26,33.62,35.51
"2016-03-06 12:30:00",225496,1.229,137.2,9.51,55.07,331.48,0,871.5574,0,27.67,2.855,170,0.77,1.213,162.676,0.49,51.33,59.26,33.62,35.51
"2016-03-06 12:40:00",225497,0.944,132.7,9.35,56.21,300.2109,0,871.3595,0,27.6,2.854,174,0.768,1.203,148.5956,0.494,51.33,59.26,33.62,35.51
"2016-03-06 12:50:00",225498,1.085,128.3,9.58,56.14,278.2674,0,871.2121,0,27.51,2.856,189,0.76,1.192,136.9618,0.492,51.33,59.26,33.62,35.51
"2016-03-06 13:00:00",225499,1.086,106.7,9.26,57.73,193.2,0,871.3489,0,27.42,2.859,181,0.766,1.204,96.0327,0.497,51.33,59.26,33.62,35.51
"2016-03-06 13:10:00",225500,1.009,112.2,9.16,58.74,228.6277,0,871.3574,0,27.27,2.859,179,0.769,1.24,114.5705,0.501,51.38,59.26,33.64,35.51
"2016-03-06 13:20:00",225501,0.921,93.1,9.38,59.09,337.6849,0,871.3363,0,27.25,2.857,174,0.769,1.221,165.2355,0.488,51.33,59.26,33.62,35.51
"2016-03-06 13:30:00",225502,1.312,156.6,9.86,56.36,521.2444,0,871.2395,0,27.07,2.857,175,0.747,1.182,247.3521,0.474,51.38,59.26,33.64,35.51
"2016-03-06 13:40:00",225503,1.456,107.5,9.99,54.98,464.9995,0,871.1719,0,27.19,2.856,188,0.729,1.159,219.2632,0.472,51.38,59.26,33.64,35.51
"2016-03-06 13:50:00",225504,1.301,115.3,10.13,52.98,400.5572,0,871.1301,0,27.09,2.857,191,0.729,1.16,185.3418,0.464,51.38,59.26,33.64,35.51
"2016-03-06 14:00:00",225505,0.971,125.1,9.88,53.07,234.2381,0,871.1222,0,26.67,2.864,178,0.737,1.167,112.2792,0.481,51.33,59.26,33.62,35.51
"2016-03-06 14:10:00",225506,1.186,137.3,9.28,55.58,127.6979,0,871.0594,0,26.77,2.865,183,0.764,1.196,62.45452,0.488,51.33,59.26,33.62,35.51
"2016-03-06 14:20:00",225507,1.327,130.8,8.93,58.8,149.0445,0,870.976,0,26.76,2.866,187,0.74,1.227,74.43673,0.498,51.33,59.26,33.62,35.51
"2016-03-06 14:30:00",225508,1.054,152.1,9.16,58.99,202.5936,0,870.6927,0,26.76,2.866,178,0.747,1.231,99.13139,0.489,51.33,59.26,33.62,35.51
"2016-03-06 14:40:00",225509,1.034,130.7,9.2,59.66,162.4674,0,870.5472,0,26.6,2.866,170,0.708,1.236,80.50643,0.495,51.38,59.26,33.64,35.51
"2016-03-06 14:50:00",225510,1.258,121.4,9.24,60.55,154.4078,0,870.32,0,26.49,2.868,187,0.69,1.238,74.56047,0.483,51.38,59.32,33.64,35.52
"2016-03-06 15:00:00",225511,1.317,135.3,8.81,63.74,64.54606,0,870.2469,0,26.6,2.868,173,0.639,1.227,31.67223,0.489,51.38,59.26,33.64,35.51
"2016-03-06 15:10:00",225512,0.591,117.3,8.42,67.6,73.70393,0,870.0891,0,26.72,2.871,173,0.642,1.158,39.58892,0.533,51.38,59.26,33.64,35.51
"2016-03-06 15:20:00",225513,1.021,169.7,7.965,72.74,79.24768,0,870.1486,0,26.63,2.871,170,0.67,1.104,42.61573,0.539,51.38,59.32,33.64,35.52
"2016-03-06 15:30:00",225514,1.037,133.3,8.11,74.11,78.06077,0,870.3319,0,26.56,2.872,170,0.694,1.088,41.06454,0.526,51.38,59.32,33.64,35.52
"2016-03-06 15:40:00",225515,0.951,172,7.959,76.03,62.4836,0,870.3698,0,26.35,2.876,169,0.71,1.129,32.48302,0.52,51.38,59.32,33.64,35.52
"2016-03-06 15:50:00",225516,0.704,159.7,7.692,77.97,34.92001,0,870.5087,0,26.42,2.876,169,0.716,1.149,17.3386,0.495,51.38,59.32,33.64,35.52
"2016-03-06 16:00:00",225517,0.92,142.5,7.658,80.2,60.24227,0,870.5466,0,26.42,2.876,185,0.72,1.157,30.93473,0.511,51.38,59.32,33.64,35.52
"2016-03-06 16:10:00",225518,1.016,96.5,7.749,83,62.62729,0,870.5909,0,26.41,2.875,189,0.725,1.157,32.74559,0.522,51.38,59.32,33.64,35.52
"2016-03-06 16:20:00",225519,1.146,169.1,7.585,82.9,23.01181,0,870.7277,0,26.31,2.877,189,0.748,1.16,11.69432,0.508,51.38,59.32,33.64,35.52
"2016-03-06 16:30:00",225520,0.683,347.2,7.465,83.6,35.42335,0,870.6667,0,26.09,2.881,174,0.761,1.162,17.85023,0.5,51.44,59.32,33.65,35.52
"2016-03-06 16:40:00",225521,0.459,7.003,7.464,85.6,21.63669,0,870.4383,0,25.8,2.883,182,0.761,1.165,10.52376,0.482,51.44,59.32,33.65,35.52
"2016-03-06 16:50:00",225522,0.398,37.28,7.185,90.9,3.406394,0,870.6228,0,25.46,2.889,187,0.761,1.188,2.242643,0.682,51.44,59.32,33.65,35.52
"2016-03-06 17:00:00",225523,0.958,126.9,6.759,100,9.598407,0,870.6026,0,25.6,2.889,184,0.761,1.193,4.621664,0.482,51.49,59.32,33.66,35.52
"2016-03-06 17:10:00",225524,0.72,129.6,6.636,100,11.16606,0,870.7725,0,25.13,2.894,181,0.761,1.193,5.140654,0.459,51.44,59.32,33.65,35.52
"2016-03-06 17:20:00",225525,1.026,149.8,6.649,100,18.9889,0,870.8806,0,25.37,2.891,187,0.766,1.198,8.872229,0.465,51.49,59.32,33.66,35.52
"2016-03-06 17:30:00",225526,1.066,135.9,6.62,99.6,14.85617,0,870.9186,0,25.72,2.889,174,0.776,1.208,7.228387,0.488,51.49,59.26,33.66,35.51
"2016-03-06 17:40:00",225527,1.094,120.2,6.516,97.5,5.465623,0,870.9969,0,25.47,2.891,186,0.769,1.215,2.62169,0.47,51.6,59.26,33.69,35.51
"2016-03-06 17:50:00",225528,1.227,156.2,6.608,94.4,1.229926,0,870.9263,0,25.36,2.891,193,0.782,1.235,1.242741,0.732,51.6,59.32,33.69,35.52
"2016-03-06 18:00:00",225529,0.883,78.74,6.472,90.1,0,0,870.8873,0,25.43,2.894,188,0.834,1.262,0.4622774,0,51.6,59.32,33.69,35.52
"2016-03-06 18:10:00",225530,0.77,306.2,6.244,91.3,0,0,870.9385,0,24.92,2.897,184,0.844,1.278,0.147786,0,51.71,59.32,33.72,35.52
"2016-03-06 18:20:00",225531,0.722,111.3,6.403,86,0.1847214,0,871.0546,0.5,25.11,2.894,180,0.828,1.287,0.3865278,0.47,51.77,59.32,33.73,35.52
"2016-03-06 18:30:00",225532,0.672,45.41,6.546,83.7,0.3222816,0,871.0145,0,24.98,2.896,181,0.816,1.289,0.3031615,0.691,51.88,59.32,33.76,35.52
"2016-03-06 18:40:00",225533,0.928,157.9,6.416,83.7,0.2358168,0,870.9808,0,25.32,2.893,185,0.824,1.265,0.09473844,0.179,51.94,59.32,33.77,35.52
"2016-03-06 18:50:00",225534,1.075,155.7,6.594,79.8,0.7074509,0,871.1093,0,24.77,2.896,176,0.816,1.261,0.4168495,0.468,52.05,59.38,33.8,35.54
"2016-03-06 19:00:00",225535,0.623,351.5,6.6,80.1,0.5581003,0,871.1788,0,24.41,2.902,174,0.792,1.272,0.06063266,0.067,52.16,59.38,33.83,35.54
"2016-03-06 19:10:00",225536,1.07,148.4,6.203,84.9,0.01965142,0,871.1409,0,24.72,2.899,194,0.782,1.252,0.07200127,0,52.21,59.38,33.84,35.54
"2016-03-06 19:20:00",225537,2.052,164.1,6.496,84.8,0,0,870.8903,0,24.75,2.898,192,0.786,1.259,0.03789541,0,52.32,59.44,33.87,35.55
"2016-03-06 19:30:00",225538,2.106,157.1,6.593,84.8,0,0,870.9808,0,24.57,2.9,184,0.787,1.253,0,0,52.38,59.44,33.88,35.55
"2016-03-06 19:40:00",225539,2.329,159.5,6.44,87.9,0,0,870.8207,0,24.57,2.9,187,0.776,1.252,0,0,52.44,59.44,33.89,35.55
"2016-03-06 19:50:00",225540,2.755,160.4,6.695,83.4,0,0,870.4669,0,24.29,2.901,188,0.772,1.262,0.01515816,0,52.49,59.5,33.91,35.56
"2016-03-06 20:00:00",225541,1.489,162,6.969,80,0,0,870.448,0,24.25,2.9,189,0.766,1.249,0.07200127,0,52.55,59.56,33.92,35.58
"2016-03-06 20:10:00",225542,1.24,165.8,7.104,80.2,0.4048192,0,870.6923,0,23.95,2.903,187,0.764,1.23,0.03410587,0.08,52.6,59.61,33.94,35.59
"2016-03-06 20:20:00",225543,0.988,140.1,7.103,80.4,0.5895425,0,870.7007,0,23.93,2.903,182,0.765,1.231,0,0,52.66,59.67,33.95,35.6
"2016-03-06 20:30:00",225544,0.939,145.8,7.101,81,0.5384489,0,870.707,0,24.51,2.897,190,0.767,1.228,0.007579082,0.009,52.72,59.67,33.96,35.6
"2016-03-06 20:40:00",225545,0.735,183.9,6.94,82.1,0.2672593,0,870.8818,0,24.48,2.9,191,0.77,1.229,0,0,52.77,59.67,33.98,35.6
"2016-03-06 20:50:00",225546,0.686,133.5,6.973,82.4,0.6917298,0,870.8503,0,24.51,2.897,178,0.769,1.24,0.04926403,0.039,52.77,59.73,33.98,35.62
"2016-03-06 21:00:00",225547,0.562,116,7.093,81,0.6367059,0,870.8798,0,24.44,2.899,173,0.766,1.233,0.01136862,0.012,52.77,59.79,33.98,35.63
"2016-03-06 21:10:00",225548,0.654,140.9,6.838,83.7,0.4008889,0,870.8313,0,24.2,2.901,177,0.764,1.235,0.003789541,0.008,52.88,59.85,34,35.64
"2016-03-06 21:20:00",225549,0.548,155.2,6.904,84.9,0.01572113,0,870.8419,0,23.98,2.904,182,0.763,1.246,0,0,52.88,59.97,34,35.67
"2016-03-06 21:30:00",225550,0.438,121.6,6.644,89.4,0,0,870.9451,0,24.12,2.904,179,0.763,1.268,0,0,52.94,60.03,34.02,35.69
"2016-03-06 21:40:00",225551,0.71,146.5,6.711,92.4,0,0,870.9451,0,24.47,2.899,170,0.763,1.254,0.1326339,0,53,60.03,34.03,35.69
"2016-03-06 21:50:00",225552,0.484,148.3,6.858,89.2,0,0,870.8419,0,23.84,2.905,192,0.763,1.26,0.04168495,0,52.94,60.09,34.02,35.7
"2016-03-06 22:00:00",225553,0.961,142,7.089,86.7,0,0,870.7807,0,24.25,2.9,190,0.763,1.249,0.2576888,0,53.05,60.15,34.04,35.71
"2016-03-06 22:10:00",225554,0.951,145.6,7.103,85.8,0,0,870.608,0,24.21,2.9,192,0.766,1.239,0.0833699,0,53.05,60.21,34.04,35.73
"2016-03-06 22:20:00",225555,1.192,153.4,7.321,83.9,0,0,870.4395,0,24.07,2.9,189,0.763,1.233,0.1781084,0,53.05,60.33,34.04,35.75
"2016-03-06 22:30:00",225556,0.869,143.7,7.343,84,0,0,870.608,0,24.16,2.9,191,0.763,1.229,0.01136862,0,53.11,60.33,34.06,35.75
"2016-03-06 22:40:00",225557,0.966,147.3,7.298,84.8,0,0,870.5259,0,23.96,2.902,182,0.763,1.233,0,0,53.05,60.38,34.04,35.77
"2016-03-06 22:50:00",225558,0.878,144,7.351,85,0,0,870.4395,0,24.02,2.901,192,0.763,1.224,0,0,53.11,60.5,34.06,35.79
"2016-03-06 23:00:00",225559,0.745,125.5,7.195,86.1,0,0,870.4395,0,23.91,2.902,191,0.763,1.238,0,0,53.16,60.56,34.07,35.81
"2016-03-06 23:10:00",225560,0.739,118.1,7.262,86.7,0.05109369,0,870.4417,0,23.91,2.902,191,0.763,1.237,0.003789541,0.016,53.16,60.68,34.07,35.83
"2016-03-06 23:20:00",225561,0.61,149.7,7.365,87.6,0.01179085,0,870.4332,0,23.97,2.901,190,0.763,1.235,0,0,53.16,60.68,34.07,35.83
"2016-03-06 23:30:00",225562,0.553,153.9,7.412,88.5,0,0,870.4122,0,23.63,2.905,190,0.763,1.237,0,0,53.16,60.74,34.07,35.85
"2016-03-06 23:40:00",225563,0.727,140.8,7.032,96.1,0,0,870.2394,0,23.74,2.906,186,0.763,1.243,0,0,53.16,60.86,34.07,35.88
"2016-03-06 23:50:00",225564,0.66,130.2,6.715,100,0,0,870.0899,0,23.58,2.908,190,0.763,1.25,0,0,53.22,60.92,34.08,35.89
